Weather History for Ludington, MI

Change the Weather History Date:

Sunday, January 6, 2013

  Actual Average Record
Temperature  
Mean Temperature 32 °F -  
Max Temperature 37 °F 28 °F 53 °F (2008)
Min Temperature 25 °F 17 °F -4 °F (2014)
Degree Days  
Heating Degree Days 34    
Moisture  
Dew Point 27 °F    
Average Humidity 77    
Maximum Humidity 87    
Minimum Humidity 67    
Precipitation  
Precipitation 0.02 in - - ()
Sea Level Pressure  
Sea Level Pressure 29.99 in    
Wind  
Wind Speed 10 mph (NW)    
Max Wind Speed 20 mph    
Max Gust Speed 29 mph    
Visibility 8 miles    
Events Rain , Snow    
Averages and records for this station are not official NWS values.
T = Trace of Precipitation, MM = Missing Value Source: NWS Daily Summary

Daily Weather History Graph

Daily Weather History Graph

Search for Another Location

Airport:

Trip Planner

Search our weather history database for the weather conditions in past years. The results will help you decide how hot, cold, wet, or windy it might be!

Date:

Astronomy

Jan. 06, 2013 Rise Set
Actual Time 8:19 AM EST 5:23 PM EST
Civil Twilight 7:47 AM EST 5:56 PM EST
Nautical Twilight 7:11 AM EST 6:32 PM EST
Astronomical Twilight 6:36 AM EST 7:07 PM EST
Moon 2:29 AM EST (1/6) 12:54 PM EST (1/6)
Length of Visible Light 10h 08m
Length of Day
9h 03m
Waning Crescent, 33% of the Moon is Illuminated
Jan 6
Waning Crescent
Jan 11
New
Jan 18
First Quarter
Jan 26
Full
Feb 3
Last Quarter

Hourly Weather History & Observations

Time (EST) Temp. Windchill Dew Point Humidity Pressure Visibility Wind Dir Wind Speed Gust Speed Precip Events Conditions
12:15 AM 36.0 °F 28.5 °F 32.4 °F 87% 29.87 in 4.0 mi WSW 10.4 mph - 0.01 in Rain Light Rain
12:35 AM 36.5 °F 28.7 °F 32.9 °F 87% 29.86 in 7.0 mi WSW 11.5 mph - 0.02 in Rain Light Rain
12:55 AM 36.5 °F 28.7 °F 32.5 °F 86% 29.85 in 10.0 mi WSW 11.5 mph - 0.02 in   Drizzle
1:15 AM 37.6 °F 30.5 °F 32.7 °F 83% 29.84 in 10.0 mi West 10.4 mph 17.3 mph N/A Rain Light Rain
1:35 AM 37.6 °F 31.0 °F 32.0 °F 80% 29.84 in 10.0 mi WSW 9.2 mph 16.1 mph N/A   Overcast
1:55 AM 37.6 °F 30.0 °F 31.8 °F 80% 29.83 in 10.0 mi WSW 11.5 mph 16.1 mph N/A   Overcast
2:15 AM 37.6 °F 30.0 °F 32.0 °F 80% 29.83 in 10.0 mi WSW 11.5 mph 17.3 mph N/A   Overcast
2:35 AM 37.6 °F 29.6 °F 31.5 °F 79% 29.83 in 10.0 mi WSW 12.7 mph - N/A   Overcast
2:55 AM 37.6 °F 29.6 °F 31.5 °F 79% 29.83 in 10.0 mi WSW 12.7 mph - N/A   Overcast
3:15 AM 37.6 °F 31.0 °F 29.7 °F 73% 29.83 in 10.0 mi WSW 9.2 mph - N/A   Overcast
3:34 AM 37.6 °F 29.6 °F 30.9 °F 77% 29.82 in 10.0 mi WSW 12.7 mph - N/A   Overcast
3:55 AM 37.6 °F 30.5 °F 30.9 °F 77% 29.82 in 10.0 mi West 10.4 mph - N/A   Overcast
4:15 AM 37.6 °F 31.6 °F 31.5 °F 79% 29.81 in 7.0 mi West 8.1 mph 16.1 mph N/A Rain Rain
4:34 AM 37.6 °F 31.0 °F 30.9 °F 77% 29.81 in 10.0 mi West 9.2 mph - N/A   Overcast
4:55 AM 37.2 °F 29.6 °F 30.4 °F 76% 29.82 in 10.0 mi NW 11.5 mph 21.9 mph N/A   Overcast
5:14 AM 35.1 °F 28.6 °F 29.3 °F 80% 29.82 in 7.0 mi NNW 8.1 mph - N/A   Overcast
5:35 AM 35.1 °F 28.6 °F 29.3 °F 80% 29.82 in 7.0 mi NW 8.1 mph - N/A   Overcast
5:55 AM 35.1 °F 30.1 °F 28.8 °F 78% 29.82 in 7.0 mi NW 5.8 mph 17.3 mph N/A   Overcast
6:14 AM 35.1 °F 28.6 °F 28.8 °F 78% 29.83 in 10.0 mi NW 8.1 mph - N/A   Overcast
6:35 AM 34.5 °F 25.7 °F 29.5 °F 82% 29.84 in 3.0 mi NW 12.7 mph - N/A Snow Light Snow
6:55 AM 32.5 °F 27.1 °F 29.1 °F 87% 29.84 in 2.5 mi NW 5.8 mph - N/A Snow Light Snow
7:14 AM 32.5 °F 23.7 °F 27.5 °F 82% 29.85 in 3.0 mi NW 11.5 mph 16.1 mph N/A Snow Light Snow
7:35 AM 32.5 °F 23.2 °F 25.2 °F 74% 29.85 in 7.0 mi WNW 12.7 mph 19.6 mph N/A Snow Light Snow
7:55 AM 32.4 °F 23.5 °F 24.8 °F 74% 29.86 in 7.0 mi NW 11.5 mph 16.1 mph N/A   Overcast
8:15 AM 31.6 °F 25.1 °F 23.9 °F 73% 29.87 in 7.0 mi NW 6.9 mph - N/A   Overcast
8:35 AM 31.6 °F 25.1 °F 23.9 °F 73% 29.87 in 7.0 mi NW 6.9 mph - N/A   Mostly Cloudy
8:55 AM 32.5 °F 27.1 °F 25.5 °F 75% 29.87 in 7.0 mi NW 5.8 mph - N/A   Mostly Cloudy
9:35 AM 32.5 °F 24.8 °F 27.0 °F 80% 29.90 in 5.0 mi NW 9.2 mph 18.4 mph N/A Snow Light Snow
9:55 AM 31.8 °F 24.6 °F 27.7 °F 85% 29.91 in 1.5 mi NW 8.1 mph - N/A Snow Light Snow
10:15 AM 32.5 °F 27.1 °F 28.8 °F 86% 29.92 in 2.0 mi NW 5.8 mph - N/A Snow Light Snow
10:35 AM 32.5 °F 25.5 °F 29.1 °F 87% 29.92 in 3.0 mi NW 8.1 mph 16.1 mph N/A Snow Light Snow
10:54 AM 35.1 °F 27.9 °F 30.7 °F 84% 29.93 in 10.0 mi NNW 9.2 mph - N/A   Overcast
11:15 AM 35.1 °F 27.9 °F 29.8 °F 81% 29.94 in 10.0 mi NW 9.2 mph - N/A   Overcast
11:35 AM 35.1 °F 30.1 °F 29.1 °F 79% 29.94 in 7.0 mi NNW 5.8 mph - N/A   Overcast
11:54 AM 35.1 °F 26.9 °F 31.3 °F 86% 29.94 in 1.2 mi NNW 11.5 mph - N/A Snow Light Snow
12:35 PM 35.1 °F 24.8 °F 30.2 °F 82% 29.95 in 4.0 mi NNW 17.3 mph 27.6 mph N/A Snow Light Snow
12:54 PM 35.1 °F 24.5 °F 29.7 °F 81% 29.96 in 10.0 mi NNW 18.4 mph 26.5 mph N/A   Overcast
1:15 PM 35.1 °F 24.8 °F 28.6 °F 77% 29.97 in 10.0 mi North 17.3 mph 24.2 mph N/A   Overcast
1:35 PM 35.1 °F 24.8 °F 28.2 °F 76% 29.97 in 10.0 mi North 17.3 mph 27.6 mph N/A   Overcast
1:55 PM 35.1 °F 25.2 °F 28.0 °F 76% 29.98 in 10.0 mi NNW 16.1 mph 24.2 mph N/A   Overcast
2:14 PM 35.1 °F 25.2 °F 28.2 °F 76% 30.00 in 10.0 mi North 16.1 mph 27.6 mph N/A   Overcast
2:35 PM 35.1 °F 25.5 °F 27.7 °F 74% 30.02 in 10.0 mi NNW 15.0 mph 28.8 mph N/A   Overcast
2:55 PM 35.1 °F 24.1 °F 27.7 °F 74% 30.03 in 10.0 mi NNW 19.6 mph 26.5 mph N/A   Overcast
3:14 PM 35.1 °F 25.2 °F 27.3 °F 73% 30.04 in 10.0 mi North 16.1 mph 24.2 mph N/A   Overcast
3:35 PM 35.1 °F 25.9 °F 27.3 °F 73% 30.06 in 10.0 mi North 13.8 mph 25.3 mph N/A   Overcast
3:55 PM 32.5 °F 23.2 °F 24.8 °F 73% 30.07 in 10.0 mi NNW 12.7 mph 20.7 mph N/A   Overcast
4:14 PM 32.5 °F 23.7 °F 24.8 °F 73% 30.09 in 10.0 mi North 11.5 mph 19.6 mph N/A   Overcast
4:35 PM 32.5 °F 24.8 °F 24.8 °F 73% 30.11 in 10.0 mi North 9.2 mph 20.7 mph N/A   Overcast
4:55 PM 32.5 °F 23.7 °F 25.0 °F 74% 30.12 in 10.0 mi North 11.5 mph - N/A   Overcast
5:14 PM 32.5 °F 24.2 °F 24.6 °F 73% 30.13 in 10.0 mi North 10.4 mph 17.3 mph N/A   Overcast
5:35 PM 32.5 °F 24.8 °F 24.4 °F 72% 30.15 in 10.0 mi North 9.2 mph - N/A   Overcast
5:55 PM 32.5 °F 23.2 °F 24.3 °F 72% 30.16 in 10.0 mi North 12.7 mph - N/A   Overcast
6:15 PM 32.5 °F 26.2 °F 24.4 °F 72% 30.17 in 10.0 mi NNW 6.9 mph - N/A   Overcast
6:35 PM 32.5 °F 27.1 °F 24.1 °F 71% 30.19 in 10.0 mi NNW 5.8 mph - N/A   Overcast
6:55 PM 32.5 °F 25.5 °F 23.9 °F 70% 30.20 in 10.0 mi NNW 8.1 mph - N/A   Overcast
7:15 PM 32.0 °F 26.4 °F 23.4 °F 70% 30.20 in 10.0 mi NNW 5.8 mph - N/A   Overcast
7:35 PM 31.6 °F 26.0 °F 22.6 °F 69% 30.20 in 10.0 mi North 5.8 mph - N/A   Overcast
7:55 PM 31.6 °F 28.3 °F 22.6 °F 69% 30.20 in 10.0 mi NNW 3.5 mph - N/A   Overcast
8:15 PM 31.6 °F 28.3 °F 22.1 °F 68% 30.21 in 10.0 mi North 3.5 mph - N/A   Overcast
8:35 PM 31.6 °F - 22.3 °F 68% 30.22 in 10.0 mi Calm Calm - N/A   Overcast
8:54 PM 31.8 °F - 21.9 °F 67% 30.23 in 10.0 mi Calm Calm - N/A   Overcast
9:15 PM 31.6 °F - 21.9 °F 67% 30.23 in 10.0 mi Calm Calm - N/A   Overcast
9:35 PM 31.1 °F - 21.2 °F 67% 30.22 in 10.0 mi Calm Calm - N/A   Overcast
10:15 PM 30.2 °F - 23.5 °F 76% 30.22 in 10.0 mi Calm Calm - N/A   Scattered Clouds
10:55 PM 27.9 °F - 21.7 °F 78% 30.24 in 10.0 mi Calm Calm - N/A   Clear
11:15 PM 26.8 °F - 21.7 °F 81% 30.25 in 10.0 mi Calm Calm - N/A   Clear
11:35 PM 27.3 °F - 22.3 °F 81% 30.26 in 10.0 mi Calm Calm - N/A   Clear
11:55 PM 25.2 °F - 21.0 °F 84% 30.25 in 10.0 mi Calm Calm - N/A   Scattered Clouds